Wind_Speed
8 5 6 4 2 3 5 4 4 8 7 7 8 7 13 12 7 7 17 18 21 19 16 17 15 16 13 13 13 15 17 16 14 15 18 16 14 13 14 13 13 12 12 11 11 11 12 12 11
7 5 3 4 2 3 4 5 8 11 8 8 7 2 8 6 6 12 9 20 19 18 18 15 17 15 14 13 13 13 15 17 17 17 16 14 13 13 13 12 12 11 11 11 10 10 10 10 9
9 6 2 3 0 3 2 5 12 9 7 4 5 10 6 5 12 9 20 21 19 18 18 17 16 14 13 12 12 11 11 12 13 12 10 11 9 9 12 11 10 10 9 9 9 9 9 9 9
7 5 3 4 4 4 4 3 11 8 4 5 9 9 7 12 6 13 21 20 19 20 16 18 16 14 12 11 10 10 10 10 10 10 8 8 10 11 9 8 10 8 7 7 7 8 8 9 9
9 4 4 6 9 1 4 2 7 8 7 5 3 5 7 10 14 22 21 20 20 20 15 17 14 13 11 9 9 9 9 10 10 10 10 10 11 10 9 8 6 5 6 6 7 7 8 7 8
4 3 4 4 3 6 2 3 4 7 8 5 9 9 6 20 15 20 19 19 18 20 16 15 12 10 8 8 8 8 9 9 10 10 8 9 8 8 8 7 7 6 6 6 6 6 6 7 7
4 4 4 4 8 4 3 2 4 6 6 7 2 7 5 11 17 17 18 19 18 19 17 11 10 10 8 7 7 8 8 9 9 8 8 7 7 7 6 6 6 5 4 5 5 6 6 7 7
2 3 3 5 8 4 1 2 3 9 7 5 6 3 6 14 24 17 19 18 18 15 15 13 11 8 6 5 7 8 8 8 8 7 7 7 8 7 7 4 4 3 4 4 5 6 7 7 7
3 3 4 5 5 5 3 3 2 2 6 5 6 7 18 27 25 18 20 18 18 14 16 14 13 10 8 3 8 8 8 8 7 6 7 8 5 5 4 4 4 4 5 5 6 6 7 8 8
3 3 4 7 7 7 5 4 4 4 8 8 9 19 23 24 20 19 19 19 19 16 14 12 10 11 10 7 7 6 6 6 5 3 3 5 2 2 2 3 6 6 7 5 8 9 10 9 10
4 3 5 4 9 8 2 5 4 5 6 8 15 15 17 20 18 18 20 20 21 19 16 14 12 11 9 8 8 8 3 5 4 3 1 1 1 3 5 5 7 8 8 8 9 10 10 10 12
4 4 3 4 4 4 4 5 3 3 5 6 13 19 16 13 15 18 17 17 19 18 16 16 14 12 10 8 8 8 6 5 3 2 2 0 4 5 4 4 5 7 6 8 8 10 11 13 14
13 8 6 5 2 2 4 4 4 3 9 7 18 18 13 12 15 17 20 21 16 18 18 14 15 13 12 9 7 7 6 5 3 2 1 2 1 3 4 5 7 7 8 9 10 12 12 14 16
12 9 8 7 6 2 3 4 0 6 5 9 11 13 11 10 16 17 19 22 20 15 15 18 16 14 13 11 8 6 5 4 4 2 1 1 1 2 5 7 9 10 10 12 14 14 16 18 18
11 11 12 12 8 3 1 5 7 7 5 9 9 10 10 10 14 16 18 19 20 19 17 15 14 13 12 12 9 7 5 4 3 2 1 1 3 4 6 8 9 10 11 11 15 14 16 18 19
5 1 9 10 9 5 3 5 9 7 6 8 10 10 10 8 14 15 17 16 16 16 19 17 16 15 13 11 10 8 7 4 3 2 1 1 3 5 6 7 7 10 12 11 14 15 16 17 19
7 9 6 2 4 6 7 5 5 7 5 4 9 11 9 10 16 16 19 17 20 19 17 17 14 14 13 12 10 9 8 6 6 5 3 2 1 3 3 6 7 8 10 11 12 14 15 17 19
14 18 5 8 2 9 9 10 9 8 4 3 6 10 9 9 9 19 19 17 16 16 15 14 13 13 13 12 11 10 9 9 7 5 3 1 3 7 7 6 7 9 11 12 13 14 14 14 16
7 10 7 3 5 3 13 13 15 9 5 5 5 9 9 8 12 16 17 15 15 12 11 12 13 12 13 12 13 12 13 12 10 10 9 9 10 10 11 11 12 13 12 13 14 17 18 17 19
9 15 7 5 5 4 11 15 11 10 6 7 5 7 10 8 7 15 19 14 11 10 9 11 12 10 8 10 12 12 17 14 14 13 14 13 14 15 16 16 16 14 13 15 16 17 19 13 19
6 10 10 6 6 1 2 8 12 10 5 5 5 5 8 15 12 13 21 21 22 21 19 16 12 10 10 10 12 20 21 19 17 16 18 15 16 16 18 16 18 15 17 17 15 15 15 15 15
7 9 9 11 9 4 5 2 13 15 9 8 7 3 11 14 15 14 15 18 18 17 14 12 11 10 10 14 19 19 21 20 20 19 18 18 20 20 21 18 19 17 18 17 15 15 15 14 16
2 8 7 6 4 2 5 1 6 18 17 10 8 9 12 12 14 12 15 17 18 15 16 17 19 22 21 21 23 26 28 24 21 20 20 19 20 20 19 17 17 15 14 13 12 16 16 17 15
4 10 10 6 3 3 6 6 4 3 6 12 10 10 13 13 13 17 17 16 20 23 24 25 28 29 28 29 28 30 29 24 23 20 19 18 18 17 16 14 15 16 17 18 16 16 17 18 14
7 5 2 2 2 3 1 6 6 5 8 14 15 12 12 13 11 11 15 15 17 24 27 31 34 33 31 27 25 25 23 19 18 15 14 15 17 19 18 17 18 18 17 16 15 15 16 16 15
11 6 2 2 2 3 4 5 2 4 8 14 13 13 12 12 11 13 16 16 19 24 26 26 26 24 25 19 19 17 14 13 14 14 14 14 12 11 15 14 16 15 15 15 15 15 15 15 16
3 4 1 3 2 3 3 2 2 7 11 13 14 13 13 13 12 12 16 16 18 19 20 19 19 17 16 12 11 12 13 13 15 13 10 8 8 10 11 12 13 15 16 16 16 16 18 18 17
2 8 4 2 4 3 4 3 4 7 10 11 12 13 13 13 13 11 13 13 15 16 15 13 12 12 12 14 13 13 12 12 12 10 10 9 9 10 11 12 13 13 15 15 15 15 17 17 18
4 3 3 2 1 2 3 2 4 6 13 13 11 13 15 13 10 9 12 12 13 15 15 14 14 14 14 13 12 12 12 12 10 9 9 9 9 11 11 12 12 13 15 16 17 16 18 18 19
3 1 5 2 3 2 3 3 5 4 13 14 13 13 13 12 10 11 12 12 11 12 14 14 13 12 12 12 12 12 10 9 9 9 9 8 9 10 10 11 12 13 15 16 18 19 19 19 20
Wind_Direction
317 329 316 276 242 226 316 162 352 131 91 64 47 37 95 40 24 105 155 132 133 130 150 136 139 131 122 112 101 90 86 103 111 116 105 96 89 84 82 79 78 75 72 69 66 61 59 59 60
335 274 261 278 249 37 312 184 124 78 91 104 70 9 55 75 61 115 115 130 131 133 132 138 139 132 123 112 105 101 95 90 95 97 95 94 88 85 79 78 75 76 73 69 65 57 51 49 47
306 267 262 215 91 167 234 68 92 95 124 131 116 50 40 84 139 134 137 134 128 131 138 139 138 130 121 111 103 100 105 108 98 96 95 89 86 88 89 82 84 75 74 66 58 49 44 40 35
297 210 239 251 89 124 254 226 113 114 77 13 107 87 90 79 130 132 139 131 131 132 147 142 136 129 120 112 104 101 101 106 105 103 98 93 93 89 102 103 100 101 70 63 55 49 46 43 35
223 262 255 230 146 224 194 46 139 159 152 118 58 71 96 80 108 139 138 132 133 128 144 142 138 131 121 110 103 102 101 105 106 100 101 101 98 92 90 89 94 84 72 67 60 49 39 30 24
290 249 247 222 123 244 79 196 159 100 96 84 117 106 90 119 145 143 140 134 135 137 140 144 141 135 125 117 112 110 109 112 115 116 103 103 102 95 89 83 78 69 56 45 37 32 23 11 9
301 311 276 6 146 209 81 342 63 104 119 76 17 110 105 140 158 148 141 137 135 134 146 152 149 139 131 121 117 118 115 113 114 116 113 108 96 84 78 76 66 59 43 22 9 4 360 0 1
295 287 142 202 228 99 340 55 16 24 60 71 356 122 156 156 162 159 141 139 137 139 145 158 150 132 133 139 132 128 123 118 113 109 102 91 75 76 61 59 45 39 33 19 13 8 4 358 8
309 268 192 237 170 110 164 175 48 40 116 53 46 47 113 144 162 165 143 143 138 151 150 156 150 153 156 129 146 141 132 120 109 94 92 77 58 24 15 15 26 41 36 32 24 13 5 14 358
226 271 22 30 17 80 106 316 118 188 123 123 94 90 119 145 166 159 151 149 146 154 152 150 147 158 149 155 143 123 129 107 95 97 42 56 144 222 199 4 16 16 12 9 359 351 355 343 342
210 243 131 87 34 351 357 89 333 270 169 130 153 136 140 155 178 157 161 157 155 159 155 159 158 153 153 160 131 161 138 154 176 174 149 212 151 343 357 351 349 353 344 4 338 335 325 313 314
262 264 327 71 74 308 19 319 215 308 108 46 116 137 148 171 183 165 157 154 152 155 155 159 162 161 159 166 161 167 169 176 183 187 207 178 34 356 355 337 329 325 328 319 331 320 313 313 314
213 238 203 100 176 327 349 262 2 302 99 80 111 128 157 177 179 170 165 161 170 159 166 168 166 168 171 176 165 175 178 191 175 223 293 125 0 327 334 321 319 316 316 315 308 302 305 303 304
197 215 246 172 207 256 336 334 292 101 109 115 131 143 165 187 175 173 165 158 167 174 176 186 174 177 175 179 179 185 187 178 184 176 194 320 322 322 314 317 319 316 310 314 309 311 315 316 314
218 199 229 243 189 226 10 267 225 137 145 139 157 145 161 180 171 178 170 168 169 171 183 188 177 183 183 181 187 182 181 179 165 167 298 315 297 303 306 317 324 319 320 321 324 326 326 324 315
157 327 202 206 196 167 141 278 191 137 162 175 162 143 153 172 171 199 168 163 168 181 184 182 186 184 184 185 185 178 177 161 174 176 171 279 321 315 326 333 333 337 342 349 337 338 334 329 327
185 190 190 181 238 184 171 238 231 144 157 231 153 141 155 165 173 201 167 182 177 182 176 174 180 184 186 183 181 176 169 181 181 176 168 87 16 313 327 5 15 1 9 8 359 349 347 343 341
188 202 169 205 183 249 188 229 271 157 143 280 164 141 150 158 173 175 171 184 172 168 167 174 174 183 186 184 181 178 167 160 156 130 107 42 28 38 50 37 16 36 40 24 15 8 4 0 356
165 196 203 129 102 53 253 211 239 248 182 198 269 142 146 155 163 161 165 163 164 164 161 169 170 176 181 184 187 186 128 121 105 87 72 68 66 58 57 52 43 57 51 30 22 13 11 7 359
175 172 183 34 52 142 274 237 229 237 230 175 257 165 145 137 102 78 73 87 86 105 109 104 111 118 107 168 144 155 139 117 106 91 82 72 73 70 66 63 53 49 48 46 31 23 9 1 7
183 176 161 136 136 174 274 262 251 238 253 124 67 9 143 121 106 72 65 59 72 73 82 90 98 109 101 122 151 142 126 108 98 85 82 68 79 75 70 67 65 48 50 45 35 27 23 359 3
159 111 107 127 155 205 181 251 214 223 210 149 125 292 107 103 92 85 76 64 71 79 90 89 95 101 103 126 128 123 99 84 88 90 81 71 70 67 69 57 58 46 40 35 31 19 22 13 13
14 132 138 136 108 68 170 245 288 191 207 153 138 109 97 97 100 94 86 83 82 89 90 99 99 92 96 103 109 103 92 93 89 80 76 65 57 56 52 46 47 38 33 31 33 28 22 27 27
117 75 60 55 76 193 181 192 262 178 173 136 103 92 100 99 97 99 95 93 90 93 93 100 100 93 93 96 97 100 98 94 86 72 55 42 33 32 36 35 40 40 33 27 26 23 20 18 21
165 114 90 126 153 190 54 175 241 54 69 145 136 121 111 109 106 110 97 92 91 96 94 97 97 94 91 84 85 86 84 80 79 69 57 41 30 26 29 28 27 26 21 21 18 20 23 22 24
186 151 104 171 169 140 347 212 230 63 75 111 116 120 113 113 118 104 106 103 96 97 103 102 97 92 89 90 88 81 76 73 70 60 51 41 35 19 21 24 23 22 23 26 25 25 28 24 29
149 145 70 99 125 107 196 268 170 113 105 117 128 136 128 125 124 124 124 115 111 109 109 109 104 96 92 91 84 77 76 75 68 64 67 61 40 28 22 29 31 29 32 34 36 31 29 29 32
31 147 86 25 145 213 192 197 218 176 147 138 146 142 134 132 131 127 118 109 117 120 120 120 116 113 107 100 100 101 95 85 81 78 66 49 39 38 37 41 40 44 43 41 42 34 29 27 27
127 147 73 72 117 205 135 236 351 202 163 156 157 149 144 143 129 124 119 124 130 130 129 117 110 114 113 110 109 103 95 89 83 72 64 54 42 42 46 47 48 52 42 39 37 32 24 22 16
354 146 165 162 190 260 106 269 335 2 151 153 156 151 141 137 136 134 138 139 142 146 142 134 122 118 115 114 106 94 88 82 78 69 58 53 54 53 49 53 55 56 42 39 35 26 18 13 6
Height
796 795 796 795 813 805 812 797 777 788 790 782 782 787 805 809 816 832 824 825 829 832 836 839 841 843 845 847 848 849 849 849 851 853 855 856 858 858 859 860 860 860 860 860 860 859 859 858 857
797 797 796 793 814 833 824 782 788 786 783 783 785 787 797 822 816 821 825 828 831 834 838 841 843 845 847 849 850 851 852 853 854 855 857 858 860 860 860 861 861 862 862 862 861 861 860 859 858
798 797 798 798 805 825 820 785 787 786 783 782 791 792 802 821 820 822 826 829 833 837 840 842 845 847 849 851 852 853 854 854 856 857 859 860 860 861 862 863 863 863 863 862 862 861 860 860 860
797 795 793 806 816 806 806 790 784 789 786 782 786 811 813 816 817 823 827 830 834 838 841 844 846 849 850 852 853 854 856 857 858 859 860 860 861 862 862 863 863 863 863 863 862 861 861 860 860
795 791 803 804 816 805 786 779 779 788 789 789 788 814 818 821 823 825 828 832 835 838 842 845 847 849 851 853 854 856 857 858 859 860 860 861 861 862 862 863 863 863 863 863 862 862 862 861 861
801 789 806 810 811 797 786 780 777 783 785 792 795 809 820 822 825 827 830 833 836 839 843 847 849 851 852 854 855 856 857 859 859 860 861 862 862 862 863 864 864 865 865 865 864 863 863 862 861
804 802 804 801 816 804 792 778 783 785 789 795 789 807 821 823 826 828 831 834 838 841 844 848 850 851 853 855 856 857 858 859 860 861 862 863 863 864 864 865 865 865 865 866 865 865 864 864 863
803 803 802 797 803 806 791 784 784 788 798 791 792 804 823 821 826 827 832 835 838 842 845 848 851 853 854 856 857 858 859 860 862 863 863 865 865 865 866 866 865 865 865 866 865 865 865 864 863
799 814 807 802 797 801 790 790 786 788 795 795 799 802 805 818 824 827 832 836 840 842 845 848 851 854 856 857 858 859 860 862 863 865 865 866 866 867 867 867 866 866 866 866 865 865 864 863 862
806 810 803 794 790 795 793 792 788 793 796 802 807 812 816 821 824 826 831 835 839 843 845 848 851 854 857 858 859 860 862 862 864 866 867 867 868 869 868 868 868 867 867 866 866 866 865 864 863
801 808 793 794 797 794 794 793 789 792 800 795 803 812 819 823 824 827 831 835 837 842 845 848 851 855 857 858 859 861 863 864 866 867 868 868 869 870 870 869 869 868 868 868 867 866 865 864 863
807 795 793 796 799 799 798 794 793 792 799 793 794 806 816 822 823 825 830 833 837 841 845 847 850 853 856 859 860 862 863 865 866 867 868 869 869 870 871 870 870 869 868 868 866 865 864 863 861
802 799 794 796 799 798 797 797 798 795 792 794 801 810 816 820 822 825 829 833 837 841 844 847 849 851 855 857 860 862 863 865 867 868 868 868 869 870 870 870 870 869 868 868 866 864 861 860 859
791 796 795 795 799 797 802 798 795 796 793 798 804 811 816 817 820 824 827 831 836 840 843 846 847 851 853 856 859 862 864 864 866 868 869 869 869 869 869 869 869 868 867 866 865 863 862 859 858
788 800 797 796 796 800 798 807 803 794 793 800 803 807 813 815 819 822 826 829 834 838 842 844 847 850 853 855 857 861 863 866 866 867 868 869 869 869 868 868 868 867 866 865 864 863 861 859 857
800 803 811 795 794 798 803 815 794 791 794 798 800 805 811 815 819 821 825 829 833 837 840 843 846 849 852 855 857 859 862 864 866 866 867 867 868 868 867 866 866 865 864 864 863 862 861 859 856
803 809 812 802 790 797 806 811 794 790 794 795 798 802 808 813 818 820 823 828 831 834 838 842 845 849 852 854 857 859 861 862 863 864 865 866 866 867 867 866 864 863 863 863 862 861 860 857 856
796 803 806 808 801 797 805 808 795 792 793 797 794 799 805 810 814 818 823 826 830 833 837 841 844 847 850 853 856 858 858 859 862 863 864 864 866 866 866 866 864 862 861 861 861 861 860 857 854
790 795 800 802 813 814 805 804 799 793 794 798 796 798 803 808 811 816 822 825 830 833 837 841 843 845 848 850 853 855 856 859 861 863 865 865 865 865 866 867 866 864 862 862 861 860 859 858 855
790 796 804 812 813 823 819 804 796 793 793 794 796 795 801 805 812 818 823 827 832 835 837 838 842 843 846 847 849 852 856 860 861 864 866 867 866 866 866 865 866 866 863 859 860 861 860 860 859
792 792 802 806 819 823 823 816 805 793 790 792 797 797 798 807 816 826 829 833 834 836 837 840 843 844 846 849 849 851 855 860 863 866 866 869 866 867 866 866 864 869 864 862 863 861 860 860 858
791 788 799 809 813 820 817 822 804 795 796 799 802 802 806 814 820 831 835 838 840 841 842 844 846 847 848 849 850 853 857 863 866 871 870 873 870 871 867 871 865 868 866 865 864 865 863 861 858
797 791 798 806 812 817 819 823 800 785 794 803 805 807 816 823 827 837 842 843 845 846 847 849 850 851 852 852 852 856 860 866 871 873 873 876 875 873 870 872 867 869 867 867 867 864 866 863 860
794 798 803 810 817 822 813 818 804 794 789 798 808 815 820 829 836 842 847 850 849 849 852 853 853 855 857 859 861 860 863 868 869 874 878 880 880 877 874 873 870 869 869 868 868 867 865 865 865
796 802 811 817 822 822 810 815 803 791 790 800 810 818 827 835 841 845 850 854 855 852 856 857 858 858 858 867 867 866 868 873 871 874 878 880 881 879 875 874 870 869 870 870 869 867 866 868 866
795 799 809 816 819 818 822 816 799 801 796 800 813 823 831 840 848 846 854 858 857 855 860 860 859 863 859 869 869 867 869 869 872 873 874 878 880 882 877 876 872 872 872 871 871 870 870 869 866
798 802 808 812 826 823 814 808 805 804 809 812 819 828 836 841 847 851 856 857 858 861 861 862 863 864 865 868 869 869 873 874 872 876 878 881 881 880 878 875 875 875 873 874 873 875 873 870 868
794 801 813 817 829 825 815 804 797 809 811 818 824 829 838 844 849 854 857 859 861 861 862 864 864 864 865 867 870 873 874 873 874 877 880 881 881 879 878 876 876 875 874 874 874 874 872 871 868
802 802 807 810 814 817 817 804 802 796 804 815 823 830 838 845 850 854 857 860 861 862 864 864 865 867 868 870 872 872 873 873 876 878 879 879 881 880 878 878 877 877 876 876 875 875 873 871 869
807 797 799 807 814 815 813 808 805 800 803 812 823 832 838 845 850 855 858 860 862 863 864 864 866 869 870 871 873 874 876 877 877 878 880 882 880 880 880 878 877 878 877 875 873 873 875 872 871